sat.trackr.live / text

‹ back to catalog

PROVES-ELECTRA

NORAD 69795 · 1998-067YK

PAYLOAD ACTIVE UNKNOWN

§ Identity

Operator
Country
US
Launch date
1998-11-20
Launch site
TYMSC
Launch vehicle
Mass (kg)
RCS (m²)

External: N2YO · Heavens-Above · Gunter

§ Orbital elements

Epoch: 2026-09-19T20:27:55.277568Z

Period
92.42 min
Inclination
51.6287°
Eccentricity
0.0008119
Mean motion
15.58096649 rev/d
Perigee alt
387.7 km
Apogee alt
398.7 km
Semi-major
6,771.3 km
B*
8.1097e-4
RAAN
188.9637°
Arg perigee
160.7877°
Mean anomaly
199.3423°
Rev number
1,236

§ Raw data

PROVES-ELECTRA1 69795U 98067YK  26262.85272312  .00062251  00000+0  81097-3 0  99972 69795  51.6287 188.9637 0008119 160.7877 199.3423 15.58096649 12360

JSON: /api/v1/satellites/69795 · /tle

For live sub-satellite position, see the globe view (requires WebGL).

§ Visibility from observer

Set your observer location to see the next 7 days of passes ≥ 10°. The values pass through the URL so the page stays shareable.

No JS? Fill the form by hand. The geolocation button needs JavaScript.